Simultaneous Nadir Overpasses (SNOs) Predictions

Prediction of SNOs between AQUA and NOAA-19 Satellite Orbit:

Table of predicted SNOs for the next 14.0 days since TLE Epoch: 9/21/2018
Index Date (AQUA) Time (AQUA) Lat,Lon (AQUA) SZA (AQUA ) Date (NOAA-19) Time (NOAA-19) Lat,Lon (NOAA-19) SZA (NOAA-19 ) Distance(km) Time Diff (sec)
1 09/23/2018 05:52:42 -80.71,-125.52 97.53 09/23/2018 05:51:35 -80.70,-125.62 97.51 2.51 67
2 09/23/2018 06:42:09 80.71, 42.21 82.47 09/23/2018 06:42:30 80.72, 42.30 82.47 2.16 21
3 09/25/2018 12:15:50 -80.72, 138.60 96.66 09/25/2018 12:16:07 -80.71, 138.67 96.68 1.92 17
4 09/27/2018 17:49:31 80.70,-124.59 84.16 09/27/2018 17:49:35 80.71,-124.72 84.17 2.45 4
5 09/29/2018 23:23:12 -80.71, -28.15 94.98 09/29/2018 23:23:12 -80.70, -28.08 94.99 1.68 0
6 10/02/2018 04:56:53 80.70, 68.55 85.85 10/02/2018 04:56:39 80.70, 68.59 85.85 0.86 14
7 10/04/2018 10:30:34 -80.71, 165.02 93.29 10/04/2018 10:30:17 -80.70, 165.06 93.30 1.95 17




NCC Satellite Simultaneous Nadir Overpasses (SNOs) Prediction Service
